74P/Smirnova-Chernykh (2009)

Japanese version
Home page
Updated on February 4, 2013

---------------------------------------------------------------------

* Profile

* Pictures

* Orbital Elements

Epoch 2009 July 28.0 TT = JDT 2455040.5
T 2009 July 30.32433 TT                                 MPC
q   3.5576650            (2000.0)            P               Q
n   0.11559931     Peri.   87.24256     -0.95634938     -0.26956158
a   4.1734884      Node    77.10050     +0.20023866     -0.88572019
e   0.1475560      Incl.    6.64743     +0.21283878     -0.37793689
P   8.53
From 2261 observations 1992 Apr. 22-2011 May 4, mean residual 0".7.

* Finding Charts

* Magnitudes Graph

        m1 = 2.0 + 5 log d + 20.0 log r

---------------------------------------------------------------------

The orbital elements are published on M.P.E.C. 2011-J28.
The charts are made with StellaNavigator Ver.2.0 for Windows (AstroArts / ASCII).
The magnitudes graphs are made with Comet for Windows.

---------------------------------------------------------------------

Copyright(C) Seiichi Yoshida (comet@aerith.net). All rights reserved.